THORAD AGENA D DEB, 19351

Orbit data source: Space-Track

THORAD AGENA D DEB, 19351 is space debris in SSO originally from a launch on Wed, 08 Apr 1970 UTC launched from the Air Force Western Test Range (AFWTR). Debris objects in space refer to the collection of defunct objects orbiting the Earth. Examples of debris include non-operational satellites, rocket bodies, and fragments generated from explosions, collisions, or faulty payload assembly.

Loading next visibility...
Identifier
19351, 1970-025PW
Orbit
SSO
Country
Flag of USUS
Related business
Manufacturer
Unknown
Mission
Spacecraft
Bus & Motor
Unknown
Mass
Unknown
Launch date (UTC)
1970-04-08 (56 years ago)
Launch vehicle
Unknown
Launch site
Air Force Western Test Range (AFWTR)
Object type
Payload
Rocket body
Debris
Shape & HBR
Unknown shape, 0.1 m
Radar Cross Section
Medium (>0.1 m² and <1 m²)

Expand to show TLE details & history
Last TLE update: 5 hours ago

TLE from 5 hours ago
0 THORAD AGENA D DEB
1 19351U 70025PW  26237.54420001  .00000314  00000-0  39320-3 0  9997
2 19351 100.1126  90.8195 0029623  19.5163  10.3292 13.72897199940232
Epoch: 2026-08-25T13:03Z
TLE epoch observation values (Epoch: 2026-08-25T13:03:38.880Z)
Latitude
29.44523°
Longitude
-84.65085°
Altitude
971.28 km
Speed
7.379 km/s
True Right ascension
05h 40m 17s
True Declination
29° 18' 09"
Sunlit
Object was in daylight at epoch
Visualization orbit readout
Latitude
Unknown
Longitude
Unknown
Altitude
Unknown
Speed
Unknown
Apparent Right ascension
Unknown
Apparent Declination
Unknown
Sunlit
N/A
Visualization observer readout
Local Sidereal Time
09:35:35
Azimuth
Unknown
Elevation
Unknown
Doppler factor
Unknown
Orbital elements
Apogee altitude
1,008.297 km
Perigee altitude
964.664 km
Semi-major axis
7,364.618 km
Eccentricity
0.00296
Inclination
100.1126°
RAAN
90.8195°
Arg. of periapsis
19.5163°
True anomaly
10.39029°
Mean anomaly
10.3292°
Eccentric anomaly
10.35972°
Mean motion
3.43414 °/min
Orbital period
104.83 mins
BSTAR
0.0003932

Documentation

Showing up to 5 results
|